Location: Lafig�re
(44.4503°N, 4.0357°E)
Time: 15:02:28
(UTC+00:00)

Vanguard 2 Rocket - Pass Details

Date: 25 June 2021
Orbit: 554 x 3325 km, 32.9° (Epoch: 24 July)

Event Time Altitude Azimuth Distance (km) Brightness Sun altitude
Rises 23:47:20 0° 278° (W) 6,923 11.5 -22.2°
Reaches altitude 10° 23:53:50 10° 266° (W) 5,502 10.8 -22.1°
Maximum altitude 00:04:06 22° 224° (SW) 3,728 9.6 -22.0°
Enters shadow 00:05:03 22° 219° (SW) 3,650 9.5 -22.0°
